Showing default

ZHUHAI-1 01, 42761

Orbit data source: Space-Track

ZHUHAI-1 01, 42761 is a payload satellite owned by Zhuhai Orbita (CN) in LEO that was launched on Thu, 15 Jun 2017 UTC via a CHANG ZHENG 4B launch vehicle from the Jiuquan Satellite Launch Center, China (JSC). Payload-class satellites include a variety of spacecraft equipped with specific instruments for various scientific and technological missions. These include communications satellites like Starlink; space stations such as the ISS; scientific satellites like the Hubble; Earth observation satellites from companies like Planet Labs, Umbra, and HawkEye 360; GPS; miniature CubeSats for education and research; and military/defense satellites.

Loading next visibility...
Identifier
42761, 2017-034D
Orbit
LEO
Last TLE update
4 hours ago
Origin
Manufacturer
Zhuhai Orbita
Mission
Operational Commercial Imaging
Bus & Motor
OVS-1, Unknown motor
Mass
50 kg wet, 50 kg dry
Launch date (UTC)
2017-06-15 (8 years ago)
Launch vehicle
CHANG ZHENG 4B
Launch site
Jiuquan Satellite Launch Center, China (JSC)
Object type
Payload
Rocket body
Debris
Shape & HBR
Box, 1 m
Radar Cross Section
0.375 m², Medium (>0.1 m² and < 1m²)

Expand to show TLE details & history

TLE from 4 hours ago
0 ZHUHAI-1 01
1 42761U 17034D   25192.18653229  .00055741  00000-0  46949-3 0  9997
2 42761  43.0089 129.7322 0021122 161.1461 199.0192 15.68708060447580
Epoch: 2025-07-11T04:28Z
TLE epoch observation values (Epoch: 2025-07-11T04:28:36.389Z)
Latitude
-0.00006°
Longitude
133.23845°
Altitude
375.83 km
Speed
7.678 km/s
True Right ascension
08h 38m 55s
True Declination
0° 00' 00"
Sunlit
Object was in daylight at epoch
Visualization orbit readout
Latitude
-5.54997°
Longitude
-41.78095°
Altitude
350.383 km
Speed
7.708 km/s
Apparent Right ascension
21h 55m 32s
Apparent Declination
-68° 18' 03"
Sunlit
Object is in full shadow
Visualization observer readout
Local Sidereal Time
20:37:18
Azimuth
172.469° S
Elevation
-19.207°
Doppler factor
1
Orbital elements
Apogee altitude
378.816 km
Perigee altitude
350.332 km
Semi-major axis
6,742.711 km
Eccentricity
0.00211
Inclination
43.0089°
RAAN
129.7322°
Arg. of periapsis
161.1461°
True anomaly
Unknown
Mean anomaly
199.0192°
Eccentric anomaly
Unknown
Mean motion
3.92005 °/min
Orbital period
91.84 mins
BSTAR
0.00046949
Loading maneuver chart data...
Loading SW <> Apogee altitude chart data...
Loading historical data...
Loading historical data...
Loading historical data...
Loading historical data...
Loading historical data...
Loading historical data...
Loading historical data...

ZHUHAI-1 01 Visibility forecast

Observer location: undefined°, undefined°

Span
Click to sort rows by Start time (UTC) header in descending order
Start Az.
Max El. time (UTC)
Max El. Az.
Max El.
End time (UTC)
End Az.
4 mins2025-07-11 23:01:47.231Z199.745° SSW2025-07-11 23:03:47.231Z137.665° SSE24.727°2025-07-11 23:05:47.231Z91.779° ESE
4 mins2025-07-12 00:37:47.231Z267.48° W2025-07-12 00:39:47.231Z15.996° NNE41.464°2025-07-12 00:41:47.231Z66.868° ENE
4 mins2025-07-12 02:14:47.231Z306.61° NW2025-07-12 02:15:47.231Z347.203° N34.214°2025-07-12 02:18:47.231Z77.684° E
4 mins2025-07-12 03:50:47.231Z283.577° WNW2025-07-12 03:52:47.231Z135.096° SSE40.95°2025-07-12 03:54:47.231Z115.354° SE
|